Bogalusa, LA

11:26 AM CDT on July 27, 2016 (GMT -0500)
Carr Memorial

Weather History for KBXA - April, 2014

Change the Weather History Date:

Friday, April 25, 2014

  Actual Average Record
Temperature  
Mean Temperature 75 °F -  
Max Temperature 87 °F 80 °F 87 °F (2014)
Min Temperature 62 °F 57 °F 53 °F (2013)
Cooling Degree Days 10    
Growing Degree Days 25 (Base 50)    
Moisture  
Dew Point 64 °F    
Average Humidity 70    
Maximum Humidity 88    
Minimum Humidity 38    
Precipitation  
Precipitation 0.00 in - - ()
Sea Level Pressure  
Sea Level Pressure 29.96 in    
Wind  
Wind Speed 3 mph (West)    
Max Wind Speed 9 mph    
Max Gust Speed -    
Visibility 10 miles    
Events Thunderstorm    
Averages and records for this station are not official NWS values.
T = Trace of Precipitation, MM = Missing Value Source: NWS Daily Summary

Daily Weather History Graph

Daily Weather History Graph

Search for Another Location

Airport or City:

Trip Planner

Search our weather history database for the weather conditions in past years. The results will help you decide how hot, cold, wet, or windy it might be!

Date:

Astronomy

Apr. 25, 2014 Rise Set
Actual Time 6:21 AM CDT 7:34 PM CDT
Civil Twilight 5:55 AM CDT 7:59 PM CDT
Nautical Twilight 5:25 AM CDT 8:29 PM CDT
Astronomical Twilight 4:54 AM CDT 9:00 PM CDT
Moon 3:52 AM CDT (4/25) 4:10 PM CDT (4/25)
Length of Visible Light 14h 03m
Length of Day
13h 13m
Waning Crescent, 15% of the Moon is Illuminated
Apr 25
Waning Crescent
Apr 29
New
May 6
First Quarter
May 14
Full
May 21
Last Quarter

Hourly Weather History & Observations

Time (CDT) Temp. Heat Index Dew Point Humidity Pressure Visibility Wind Dir Wind Speed Gust Speed Precip Events Conditions
12:15 AM 71.8 °F - 65.5 °F 80% 29.94 in 10.0 mi SW 5.8 mph - N/A   Unknown
12:35 AM 72.3 °F - 65.7 °F 79% 29.94 in 10.0 mi SW 4.6 mph - N/A   Unknown
12:55 AM 72.5 °F - 66.0 °F 80% 29.94 in 10.0 mi WSW 4.6 mph - N/A   Unknown
1:15 AM 72.1 °F - 66.2 °F 82% 29.94 in 10.0 mi SW 3.5 mph - N/A   Unknown
1:35 AM 72.3 °F - 66.2 °F 81% 29.94 in 10.0 mi WSW 3.5 mph - N/A   Unknown
1:55 AM 72.0 °F - 66.2 °F 82% 29.93 in 10.0 mi SW 3.5 mph - N/A   Unknown
2:15 AM 72.1 °F - 66.2 °F 82% 29.93 in 10.0 mi WSW 4.6 mph - N/A   Unknown
2:35 AM 71.8 °F - 66.2 °F 83% 29.92 in 10.0 mi SW 5.8 mph - N/A   Unknown
2:55 AM 71.8 °F - 66.2 °F 83% 29.92 in 10.0 mi SW 5.8 mph - N/A   Unknown
3:15 AM 71.4 °F - 66.2 °F 84% 29.92 in 10.0 mi SW 4.6 mph - N/A   Unknown
3:35 AM 70.7 °F - 65.7 °F 84% 29.92 in 10.0 mi Calm Calm - N/A   Unknown
3:55 AM 69.8 °F - 65.3 °F 86% 29.92 in 10.0 mi SW 3.5 mph - N/A   Unknown
4:15 AM 69.4 °F - 65.5 °F 87% 29.93 in 10.0 mi Calm Calm - N/A   Unknown
4:35 AM 70.2 °F - 66.2 °F 87% 29.93 in 10.0 mi Calm Calm - N/A   Unknown
4:55 AM 70.3 °F - 66.4 °F 87% 29.94 in 10.0 mi Calm Calm - N/A   Unknown
5:15 AM 70.2 °F - 66.2 °F 87% 29.95 in 10.0 mi Calm Calm - N/A   Unknown
5:35 AM 70.5 °F - 66.4 °F 87% 29.95 in 10.0 mi Calm Calm - N/A   Unknown
5:55 AM 70.7 °F - 66.4 °F 86% 29.96 in 10.0 mi WSW 3.5 mph - N/A   Unknown
6:15 AM 70.9 °F - 66.4 °F 86% 29.96 in 10.0 mi WSW 3.5 mph - N/A   Unknown
6:35 AM 70.3 °F - 66.2 °F 87% 29.97 in 7.0 mi SW 3.5 mph - N/A   Unknown
6:55 AM 70.7 °F - 66.6 °F 87% 29.98 in 7.0 mi SW 3.5 mph - N/A   Unknown
7:15 AM 70.9 °F - 66.7 °F 87% 29.98 in 7.0 mi Calm Calm - N/A   Unknown
7:35 AM 71.1 °F - 67.1 °F 87% 29.99 in 7.0 mi Calm Calm - N/A   Unknown
7:55 AM 71.8 °F - 67.3 °F 86% 30.00 in 7.0 mi Calm Calm - N/A   Unknown
8:15 AM 72.3 °F - 67.3 °F 84% 30.00 in 10.0 mi WNW 4.6 mph - N/A Thunderstorm Unknown
8:35 AM 73.2 °F - 67.1 °F 81% 30.00 in 10.0 mi West 4.6 mph - N/A   Unknown
8:55 AM 73.6 °F - 66.2 °F 78% 30.01 in 10.0 mi WNW 3.5 mph - N/A   Unknown
9:15 AM 73.8 °F - 66.0 °F 77% 30.01 in 10.0 mi NW 3.5 mph - N/A   Unknown
9:35 AM 74.3 °F - 66.2 °F 76% 30.01 in 10.0 mi NW 3.5 mph - N/A   Unknown
9:55 AM 74.7 °F - 66.0 °F 74% 30.01 in 10.0 mi Calm Calm - N/A   Unknown
10:15 AM 76.5 °F - 65.5 °F 69% 30.01 in 10.0 mi Calm Calm - N/A   Unknown
10:35 AM 76.5 °F - 65.7 °F 69% 30.01 in 10.0 mi Calm Calm - N/A   Unknown
10:55 AM 77.7 °F - 65.8 °F 67% 30.01 in 10.0 mi Calm Calm - N/A   Unknown
11:15 AM 78.8 °F - 65.3 °F 63% 30.01 in 10.0 mi Calm Calm - N/A   Unknown
11:35 AM 80.6 °F 82.7 °F 66.0 °F 61% 30.00 in 10.0 mi West 5.8 mph - N/A   Unknown
11:55 AM 80.6 °F 82.3 °F 64.8 °F 58% 30.00 in 10.0 mi SW 3.5 mph - N/A   Unknown
12:15 PM 82.0 °F 83.6 °F 64.2 °F 55% 30.00 in 10.0 mi SW 4.6 mph - N/A   Unknown
12:35 PM 81.5 °F 83.1 °F 64.4 °F 56% 29.99 in 10.0 mi Calm Calm - N/A   Unknown
12:55 PM 81.5 °F 82.8 °F 63.3 °F 54% 29.99 in 10.0 mi Calm Calm - N/A   Unknown
1:15 PM 82.6 °F 83.6 °F 62.6 °F 51% 29.98 in 10.0 mi Calm Calm - N/A   Unknown
1:35 PM 84.9 °F 85.4 °F 61.9 °F 46% 29.98 in 10.0 mi WSW 5.8 mph - N/A   Unknown
1:55 PM 84.7 °F 85.0 °F 61.5 °F 45% 29.98 in 10.0 mi NW 8.1 mph - N/A   Unknown
2:15 PM 85.6 °F 85.9 °F 61.2 °F 44% 29.97 in 10.0 mi NNW 8.1 mph - N/A   Unknown
2:35 PM 85.5 °F 85.7 °F 61.0 °F 44% 29.97 in 10.0 mi WNW 6.9 mph - N/A   Unknown
2:55 PM 86.2 °F 86.3 °F 61.2 °F 43% 29.96 in 10.0 mi West 9.2 mph - N/A   Unknown
3:15 PM 86.5 °F 86.5 °F 61.0 °F 42% 29.95 in 10.0 mi WNW 9.2 mph - N/A   Unknown
3:35 PM 85.3 °F 85.2 °F 60.6 °F 43% 29.95 in 10.0 mi West 6.9 mph - N/A   Unknown
3:55 PM 85.6 °F 85.4 °F 60.3 °F 42% 29.94 in 10.0 mi NNW 8.1 mph - N/A   Unknown
4:15 PM 84.7 °F 84.6 °F 60.1 °F 43% 29.94 in 10.0 mi WNW 3.5 mph - N/A   Unknown
4:35 PM 87.4 °F 86.7 °F 58.8 °F 38% 29.93 in 10.0 mi West 6.9 mph - N/A   Unknown
4:55 PM 86.9 °F 86.3 °F 58.8 °F 39% 29.93 in 10.0 mi NW 6.9 mph - N/A   Unknown
5:15 PM 84.2 °F 84.2 °F 60.3 °F 44% 29.93 in 10.0 mi West 4.6 mph - N/A   Unknown
5:35 PM 84.0 °F 84.4 °F 61.0 °F 46% 29.93 in 10.0 mi Calm Calm - N/A   Unknown
5:55 PM 85.8 °F 85.0 °F 57.9 °F 39% 29.93 in 10.0 mi Calm Calm - N/A   Unknown
6:15 PM 85.1 °F 84.8 °F 59.4 °F 42% 29.92 in 10.0 mi WNW 4.6 mph - N/A   Unknown
6:35 PM 83.5 °F 83.7 °F 61.0 °F 46% 29.92 in 10.0 mi Calm Calm - N/A   Unknown
6:55 PM 82.0 °F 83.6 °F 64.4 °F 55% 29.93 in 10.0 mi Calm Calm - N/A   Unknown
7:15 PM 79.5 °F - 66.9 °F 65% 29.93 in 10.0 mi WNW 3.5 mph - N/A   Unknown
7:35 PM 76.6 °F - 67.8 °F 74% 29.93 in 10.0 mi Calm Calm - N/A   Unknown
7:55 PM 74.7 °F - 66.7 °F 76% 29.93 in 10.0 mi Calm Calm - N/A   Unknown
8:15 PM 73.0 °F - 66.4 °F 80% 29.94 in 10.0 mi Calm Calm - N/A   Unknown
8:35 PM 71.2 °F - 65.3 °F 81% 29.95 in 10.0 mi Calm Calm - N/A   Unknown
8:55 PM 69.6 °F - 64.6 °F 84% 29.95 in 10.0 mi Calm Calm - N/A   Unknown
9:15 PM 69.1 °F - 64.9 °F 87% 29.96 in 10.0 mi Calm Calm - N/A   Unknown
9:35 PM 68.4 °F - 63.7 °F 85% 29.97 in 10.0 mi Calm Calm - N/A   Unknown
9:55 PM 68.0 °F - 64.4 °F 88% 29.98 in 10.0 mi Calm Calm - N/A   Unknown
10:20 PM 66.6 °F - 63.0 °F 88% 29.98 in 10.0 mi Calm Calm - N/A   Unknown
10:35 PM 66.4 °F - 62.2 °F 86% 29.99 in 10.0 mi Calm Calm - N/A   Unknown
10:55 PM 64.8 °F - 60.4 °F 86% 29.99 in 10.0 mi Calm Calm - N/A   Unknown
11:15 PM 65.1 °F - 59.7 °F 83% 29.98 in 10.0 mi Calm Calm - N/A   Unknown
11:35 PM 63.7 °F - 58.5 °F 83% 29.98 in 10.0 mi Calm Calm - N/A   Unknown
11:55 PM 62.2 °F - 57.4 °F 84% 29.99 in 10.0 mi South 5.8 mph - N/A   Unknown